User: anonymous   Login
Location: Drignac
(45.1667°N, 2.0333°E)
Time: 13:31:42
(UTC+00:00)
Language:

SPOT 5 - Orbit

View from above orbital plane
View from above orbital plane
View from above satellite
View from above satellite

Ground track
Ground track

The orbit data is extracted from the following two-line orbital elements,

1 27421U 02021A   20189.11864367 -.00000013  00000-0  81213-5 0  9992
2 27421  98.2700 259.6230 0135653 144.6791 216.3489 14.52042000947603
Epoch (UTC): 07 July 2020 02:50:50
Eccentricity: 0.0135653
inclination: 98.2700°
perigee height: 623 km
apogee height: 815 km
right ascension of ascending node: 259.6230°
argument of perigee: 144.6791°
revolutions per day: 14.52042000
mean anomaly at epoch: 216.3489°
orbit number at epoch: 94760

The dashed part of the orbit path shows where the satellite is in the earth's shadow,  

DLR